Regional Weather Roundup
Issued by NWS Wakefield, VA

Home | Current Version | Previous Version | Graphics & Text | Print | Product List | Glossary On
Versions: 1 2 3 4 5 6 7 8 9 10 11 12 13 14 15 16 17 18 19 20 21 22 23 24 25 26 27
000
ASUS41 KAKQ 161016
RWRAKQ

REGIONAL WEATHER ROUNDUP
NATIONAL WEATHER SERVICE WAKEFIELD VA
600 AM EDT WED AUG 16 2017

Note: "fair" indicates few or no clouds below 12,000 feet with no
significant weather and/or obstructions to visibility. * = Denotes
station may not report precipitation (e.g., rain,snow,etc.),
thunder or fog.

VAZ042-051-052>054-056-161100-
NORTHERN VIRGINIA

CITY           SKY/WX    TMP DP  RH WIND       PRES   REMARKS
WASH NATIONAL  CLOUDY    73  73 100 CALM      29.98R FOG
DULLES         CLOUDY    65  65 100 CALM      29.97R FOG
FORT BELVOIR   CLOUDY    68  66  94 CALM      29.98R
QUANTICO       PTCLDY    71  71 100 NW5       29.98R
FREDERICKSBRG* CLEAR     69  69 100 CALM      29.97R
STAFFORD*      FOG       65  65 100 CALM      30.02R VSB 1/2
WARRENTON      FOG       65  62  91 CALM      29.98R VSB 3/4
CULPEPER*      FOG       67  67 100 CALM      29.99R VSB 1/2
MANASSAS*      FOG       66  66 100 CALM      29.99R VSB 1/2
LEESBURG*      CLEAR     68  68 100 CALM      30.00R
WINCHESTER     FOG       68  68 100 SW3       30.00R VSB 1/2
FRONT ROYAL*   CLOUDY    68  68 100 S6        30.00R VSB 1
LURAY*         FOG       68  68 100 CALM      30.02R VSB 1/2
$$

VAZ048-049-060>072-079>083-161100-
CENTRAL AND SOUTH CENTRAL VIRGINIA

CITY           SKY/WX    TMP DP  RH WIND       PRES   REMARKS
RICHMOND       CLOUDY    73  73 100 N3        29.97R FOG
CHESTERFIELD*  CLOUDY    74  73  97 CALM      29.98R FOG
PETERSBURG*    CLOUDY    73  73 100 NE5       29.98R FOG
HANOVER        FOG       71  69  93 CALM      29.98R VSB 1/2
TAPPAHANNOCK*  FOG      N/A N/A N/A CALM      29.98R VSB 3/4
QUINTON*       CLOUDY   N/A N/A N/A NE6       29.96R
CHARLOTTSVILLE FOG       72  71  97 CALM      29.99R VSB 1/4
GORDONSVILLE*  FOG       69  69 100 CALM      29.99R VSB 1/4
ORANGE*        FOG       66  66 100 CALM      29.99R VSB 1/2
LOUISA*        FOG       66  64  94 CALM      29.98R VSB 1/2
BUMPASS*       CLOUDY    70  70 100 CALM      29.98S VSB 1/4
FARMVILLE*     FOG       75  74  95 CALM      29.98R VSB 1
CREWE*         CLOUDY    73  68  86 CALM      29.97S VSB 1/2
FORT PICKETT*  CLOUDY   N/A N/A N/A N6        29.98R VSB 1
CHASE CITY*    CLOUDY    72  72  99 N5        29.98R VSB 1/2
CLARKSVILLE*   FAIR      73  73 100 CALM      29.98R
SOUTH HILL*    CLOUDY    72  72 100 N3        30.03R VSB 1/2
LAWRENCEVILLE* CLOUDY    72  71  97 CALM      29.97R VSB 1
EMPORIA*       CLOUDY    72  72 100 N3        29.98R
$$

VAZ088>098-161100-
SOUTHEAST VIRGINIA

CITY           SKY/WX    TMP DP  RH WIND       PRES   REMARKS
NORFOLK        PTCLDY    78  76  93 N5        29.93R
VIRGINIA BEACH PTCLDY    74  73  97 N3        29.92R
NORFOLK NAVAL  MOCLDY    77  74  90 N7        29.95R
WEST POINT*    CLOUDY    73  73  99 CALM      29.97R
SALUDA*        CLOUDY    74  74 100 N5        29.96R
NEWPORT NEWS   MOCLDY    74  72  93 N3        29.95R
LANGLEY AFB    CLEAR     75  75 100 NW8       29.94R
FORT EUSTIS    CLOUDY    74  73  96 N3        29.93R
WILLIAMSBURG*  CLOUDY    75  75 100 CALM      29.97R
HR EXEC AP*    FAIR      72  70  94 NW3       29.93R
FRANKLIN*      MOCLDY    73  72  96 CALM      29.95R
US460-WAKEFLD  CLEAR     74  74 100 CALM      29.96R FOG
$$

VAZ020-022-025-037-045-161100-
WEST CENTRAL AND SOUTHWEST VIRGINIA

CITY           SKY/WX    TMP DP  RH WIND       PRES   REMARKS
STAUNTON*      FOG       67  67 100 CALM      30.05R VSB 1/4
WAYNESBORO*    CLOUDY    68  68 100 CALM      30.04R
HOT SPRINGS VA PTCLDY    63  63 100 NW7       30.17R FOG
LYNCHBURG      MOCLDY    67  66  97 CALM      30.02R FOG
DANVILLE       PTCLDY    71  71 100 CALM      29.99R
SOUTH BOSTON*  FAIR      72  71  96 CALM      29.98R
MARTINSVILLE     N/A     66  66  98 CALM      30.04R FOG
ROANOKE        CLEAR     68  67  96 CALM      30.05R
BLACKSBURG     FOG       65  64  97 CALM      30.12R VSB 1/4
DUBLIN*        PTCLDY    65  62  89 CALM      30.11R FOG
MARION*        CLOUDY    70  65  85 NW3       30.15R HAZE
HILLSVILLE*    FOG       66  62  86 CALM      30.11R VSB 1/4
RICHLANDS*     FOG       66  62  86 SE3       30.12S VSB 1/4
WISE*          MOCLDY    68  68 100 CALM      30.13R FOG
ABINGDON*      CLOUDY    71  71 100 CALM      30.09R
$$

MDZ021>025-VAZ099-100-161100-
SOUTHERN MARYLAND AND THE DELMARVA PENINSULA

CITY           SKY/WX    TMP DP  RH WIND       PRES   REMARKS
PATUXENT RIVER CLOUDY    74  74 100 N3        29.96R
BAY BRIDGE APT MOCLDY    73  72  94 CALM      29.97R
LEONARDTOWN    MOCLDY    72  70  94 CALM      29.99R
DOVER          MOCLDY    72  72 100 NW5       29.94R FOG
GEORGETOWN     CLOUDY    74  72  93 VRB3      29.96R
EASTON         MOCLDY    73  72  94 CALM      30.00R FOG
CAMBRIDGE      CLOUDY    73  72  94 N6        29.96R
SALISBURY      CLOUDY    73  73 100 NW9       29.95R FOG
OCEAN CITY     CLOUDY    73  73 100 NW6       29.95R FOG
WALLOPS ISLAND FOG       73  73 100 NW7       29.94R VSB 1
ACCOMACK*        N/A    N/A N/A N/A MISG        N/A
$$

NCZ012>017-030>032-161100-
NORTH CENTRAL AND EASTERN NORTH CAROLINA

CITY           SKY/WX    TMP DP  RH WIND       PRES   REMARKS
ROANOKE RAPIDS CLOUDY    72  72 100 N6        29.96R
RALEIGH        PTCLDY    75  74  96 N5        29.98R FOG
ELIZABETH CITY CLOUDY    77  76  96 N6        29.93R
AHOSKIE*         N/A     74  74  99 N7        29.95R
EDENTON*       MOCLDY    77  75  94 CALM      29.94R
CURRITUCK*     CLOUDY    76  73  91 CALM      29.94R
KILL DEVIL HLS CLOUDY    76  76 100 CALM      29.91S
MANTEO         CLOUDY    77  76  95 NE7       29.92S
CAPE HATTERAS  CLEAR     81  79  94 NW6       29.91R
TARBORO*       NOT AVBL
GOLDSBORO      PTCLDY    75  73  93 CALM      29.94R
WASHINGTON     FOG       75  74  98 N7        29.93R VSB 1/2
GREENVILLE     FOG       75  73  94 N3        29.96R VSB 1
NEW BERN       CLEAR     75  75 100 CALM      29.94R
WILMINGTON     CLOUDY    77  76  96 N6        29.93R
$$

VAZ048-161100-
ELSEWHERE

CITY           SKY/WX    TMP DP  RH WIND       PRES   REMARKS
HARRISBURG PA  FOG       69  69 100 N3        29.98R VSB 1/8
BALTIMORE      FOG       69  69 100 CALM      29.97R VSB 3/4
ANNAPOLIS      FOG       74  74 100 NE3       29.96R VSB 1/2
ANDREWS AFB    FOG       71  71 100 CALM      29.98R VSB 1/4
PHILADELPHIA   PTCLDY    72  69  90 CALM      29.96R FOG
HENDERSON NC   FOG       70  70  98 CALM      29.99R VSB 1
GREENSBORO     PTCLDY    73  72  96 NE5       30.00R
ROCKY MOUNT    PTCLDY    73  73 100 N6        29.96R
$$

VAZ100-161100-
MARINE

STATION/POSITION TIME  TEMP    WIND        PRES    WAVE   SWELL
                       AIR SEA DIR/SP/G            HT/PER HT/PER
                 (UTC) (F)     (DEG/KT/KT) (MB)    (FT/S) (FT/S)
BRANDYWINE LGT   0942   73      10/ 10/ 11 1014.1R
CAPE MAY NJ      0942   73 76   20/  1/  3 1013.2R
LEWES DE         0942   75 76   10/  5/  7 1013.4R
15NM E FENWICK I 0950   76 76  330/ 10/ 12 1013.8R   4/ 8   5/ 8
OCEAN-CITY-INLET 0942   74 77  350/  5/  6 1014.0R
WACHAPREAGUE VA  0942   73 80  330/  2/  2 1013.7R
THOMAS POINT MD  1000   74 78  360/  4/  5   N/A
GOOSES REEF MD   1000   76 78   80/  8/  8 1015.4    1/ 2
COVE POINT MD    0942   74      50/  9/ 12 1015.1R
SOLOMONS ISLAND  0942   74 80  350/  4/  5   N/A
BISHOPS HEAD MD  0942   74 80  300/  3/  5 1014.3R
PINEY POINT MD   0936          360/  6/  7   N/A
POTOMAC MD       1000   77 80   30/ 10/ 12 1013.7    0
CAMBRIDGE MD     0942   74 80              1015.3R
LEWISETTA VA     0942   76 80  360/  6/  9 1014.2R
RAPPAHANNOCK LGT 0936          340/  6/  7 1014.2R
STINGRAY PT      1000   77 80  360/  8/ 10 1014.5    1
YORK RVR RNG VA  0942   76     330/  7/  8 1014.4R
YORKTOWN VA      0942   76 80  320/  7/  8 1013.8R
JAMESTOWN VA     1000      82   10/  4/  6   N/A     0
DOMINION TERM VA 0942   76     360/  6/  7 1013.8R
KIPTOPEKE VA     0936      78   20/  4/  5   N/A
CHES BAY BRIDGE  0936   78 78   20/  8/  9 1013.4R
CAPE HENRY VA    0936   76     340/  6/  7   N/A
WILLOUBY STN VA  0936   76     350/  6/  6 1013.6R
S CRANEY ISL VA  0936   76     350/  7/  9 1013.3R
CAPE HENRY BUOY  1000      77                N/A     3/12   2/12
1ST LANDING BUOY 1000   78 78              1013.6    2/ 6
64NM E OF VA BCH 0950   77 79   10/ 12/ 14 1013.4    5/12   5/12
DUCK PIER NC     0936   77 78   10/ 10/ 12 1012.8R
44100 DUCK FRF   0935      79                N/A     3/10   2/14
44056 DUCK FRF   1000      78                N/A     3/ 9   2/11
OREGON INLET NC  0936   78 81  350/  5/  6 1012.7R
HATTERAS NC      0936   81 83  290/  8/  9 1012.4R
DIAMOND SHLS NC  0950   81 83  260/ 10/ 12 1012.3    3/ 8   3/ 8
CAPE LOOKOUT NC  1000   80     290/  6/  7 1012.7R
$$




USA.gov is the U.S. government's official web portal to all federal, state and local government web resources and services.